Weather History for Vandenberg AFB, CA

Change the Weather History Date:

Saturday, December 8, 2012

  Actual Average Record
Temperature  
Mean Temperature 52 °F -  
Max Temperature 62 °F 60 °F 71 °F (2006)
Min Temperature 42 °F 44 °F 30 °F (2013)
Degree Days  
Heating Degree Days 13    
Growing Degree Days 2 (Base 50)    
Moisture  
Dew Point 46 °F    
Average Humidity 80    
Maximum Humidity 93    
Minimum Humidity 58    
Precipitation  
Precipitation 0.00 in - - ()
Sea Level Pressure  
Sea Level Pressure 29.96 in    
Wind  
Wind Speed 8 mph (North)    
Max Wind Speed 21 mph    
Max Gust Speed 25 mph    
Visibility 10 miles    
Events      
Averages and records for this station are not official NWS values.
T = Trace of Precipitation, MM = Missing Value Source: NWS Daily Summary

Daily Weather History Graph

Daily Weather History Graph

Search for Another Location

Airport:

Trip Planner

Search our weather history database for the weather conditions in past years. The results will help you decide how hot, cold, wet, or windy it might be!

Date:

Astronomy

Dec. 08, 2012 Rise Set
Actual Time 6:57 AM PST 4:51 PM PST
Civil Twilight 6:29 AM PST 5:19 PM PST
Nautical Twilight 5:58 AM PST 5:50 PM PST
Astronomical Twilight 5:27 AM PST 6:21 PM PST
Moon 1:38 AM PST (12/8) 1:15 PM PST (12/8)
Length of Visible Light 10h 49m
Length of Day
9h 53m
Waning Crescent, 27% of the Moon is Illuminated
Dec 8
Waning Crescent
Dec 13
New
Dec 19
First Quarter
Dec 28
Full
Jan 4
Last Quarter

Hourly Weather History & Observations

Time (PST) Temp. Windchill Dew Point Humidity Pressure Visibility Wind Dir Wind Speed Gust Speed Precip Events Conditions
12:55 AM 50.0 °F - 39.9 °F 68% 29.96 in 10.0 mi NW 5.8 mph - N/A   Clear
1:55 AM 51.1 °F - 43.0 °F 74% 29.96 in 10.0 mi NNW 13.8 mph - N/A   Clear
2:55 AM 50.0 °F - 44.1 °F 80% 29.96 in 10.0 mi NNW 9.2 mph - N/A   Clear
3:55 AM 50.0 °F - 46.9 °F 89% 29.96 in 10.0 mi NNW 12.7 mph - N/A   Clear
4:55 AM 50.0 °F - 46.0 °F 86% 29.96 in 10.0 mi NNW 10.4 mph - N/A   Clear
5:55 AM 46.0 °F 44.8 °F 43.0 °F 89% 29.96 in 10.0 mi NNE 3.5 mph - N/A   Clear
6:55 AM 42.1 °F 37.1 °F 39.0 °F 89% 29.96 in 10.0 mi East 8.1 mph - N/A   Clear
7:55 AM 48.0 °F - 45.0 °F 89% 29.98 in 10.0 mi East 6.9 mph - N/A   Clear
8:55 AM 53.1 °F - 46.0 °F 77% 29.98 in 10.0 mi ESE 4.6 mph - N/A   Clear
9:55 AM 57.9 °F - 46.9 °F 67% 30.00 in 10.0 mi NW 5.8 mph - N/A   Clear
10:55 AM 61.0 °F - 46.9 °F 60% 29.98 in 10.0 mi NNW 8.1 mph - N/A   Clear
11:55 AM 62.1 °F - 46.9 °F 58% 29.96 in 10.0 mi NW 10.4 mph - N/A   Clear
12:55 PM 62.1 °F - 48.9 °F 62% 29.95 in 10.0 mi NW 16.1 mph - N/A   Clear
1:55 PM 61.0 °F - 50.0 °F 67% 29.93 in 10.0 mi NW 20.7 mph 25.3 mph N/A   Clear
2:55 PM 59.0 °F - 50.0 °F 72% 29.94 in 10.0 mi NW 16.1 mph - N/A   Clear
3:55 PM 57.9 °F - 51.1 °F 78% 29.94 in 10.0 mi NNW 16.1 mph - N/A   Clear
4:55 PM 53.1 °F - 50.0 °F 89% 29.93 in 10.0 mi NW 5.8 mph - N/A   Clear
5:55 PM 53.1 °F - 50.0 °F 89% 29.94 in 10.0 mi Calm Calm - N/A   Clear
6:55 PM 51.1 °F - 48.9 °F 92% 29.94 in 10.0 mi NNW 3.5 mph - N/A   Clear
7:55 PM 50.0 °F - 48.0 °F 93% 29.94 in 10.0 mi East 4.6 mph - N/A   Clear
8:55 PM 48.9 °F - 46.9 °F 93% 29.94 in 10.0 mi East 5.8 mph - N/A   Clear
9:55 PM 50.0 °F - 46.0 °F 86% 29.95 in 10.0 mi Calm Calm - N/A   Clear
10:55 PM 45.0 °F 43.5 °F 41.0 °F 86% 29.96 in 10.0 mi ENE 3.5 mph - N/A   Clear
11:55 PM 46.0 °F 43.9 °F 42.1 °F 86% 29.96 in 10.0 mi ESE 4.6 mph - N/A   Clear